Temp
-12 -13 -12 -13 -12 -12 -12 -13 -13 -13 -13 -13 -13 -13 -14 -14 -13 -13 -13 -13 -13 -13 -13 -13 -14 -13 -14 -14 -14 -13 -13 -12 -11 -12 -12 -11 -11 -11 -11 -11 -12 -12 -12
-12 -12 -12 -12 -12 -12 -12 -12 -13 -13 -13 -13 -13 -13 -13 -14 -13 -13 -13 -13 -13 -13 -13 -13 -13 -13 -13 -13 -13 -13 -13 -12 -12 -12 -11 -12 -12 -11 -12 -12 -12 -12 -12
-12 -12 -12 -12 -12 -12 -12 -12 -13 -13 -13 -13 -13 -13 -13 -13 -14 -13 -13 -13 -13 -13 -13 -13 -13 -13 -13 -13 -13 -12 -12 -12 -12 -12 -12 -12 -12 -12 -12 -12 -12 -12 -12
-12 -12 -12 -12 -12 -12 -12 -12 -12 -13 -13 -13 -14 -14 -14 -13 -13 -13 -13 -13 -13 -13 -13 -13 -13 -13 -13 -12 -12 -12 -12 -12 -12 -12 -12 -12 -12 -12 -12 -12 -12 -12 -13
-12 -12 -12 -12 -12 -12 -12 -12 -12 -13 -13 -13 -13 -13 -14 -14 -13 -13 -13 -13 -13 -13 -13 -13 -13 -13 -12 -11 -11 -11 -11 -12 -12 -12 -12 -12 -12 -12 -12 -12 -12 -13 -13
-12 -12 -12 -12 -12 -13 -12 -13 -13 -13 -13 -13 -13 -13 -14 -14 -14 -14 -13 -13 -13 -13 -13 -13 -13 -12 -12 -12 -11 -11 -11 -12 -12 -12 -12 -12 -12 -12 -12 -12 -13 -13 -14
-11 -12 -12 -11 -12 -13 -13 -13 -13 -13 -13 -13 -13 -13 -13 -13 -14 -13 -13 -13 -13 -13 -13 -13 -13 -13 -12 -12 -12 -11 -12 -12 -11 -12 -12 -12 -12 -12 -12 -13 -13 -13 -13
-11 -12 -12 -11 -12 -13 -13 -14 -13 -13 -13 -13 -13 -13 -13 -13 -13 -13 -13 -13 -13 -13 -13 -13 -13 -13 -13 -13 -12 -12 -12 -12 -12 -12 -12 -12 -13 -13 -13 -13 -13 -13 -13
-11 -12 -12 -12 -12 -13 -13 -14 -13 -13 -13 -13 -13 -13 -13 -13 -13 -13 -13 -13 -13 -13 -13 -13 -13 -12 -12 -12 -12 -12 -12 -12 -12 -12 -13 -13 -13 -13 -13 -13 -13 -13 -13
-11 -12 -12 -12 -12 -12 -13 -13 -13 -14 -13 -13 -13 -13 -12 -13 -13 -12 -12 -12 -13 -13 -13 -13 -13 -12 -13 -12 -12 -12 -12 -13 -13 -13 -13 -13 -13 -13 -13 -13 -13 -13 -13
-12 -12 -12 -12 -12 -12 -12 -13 -13 -13 -13 -13 -13 -13 -13 -13 -12 -13 -13 -12 -13 -13 -13 -13 -13 -13 -13 -13 -13 -13 -14 -14 -14 -13 -13 -13 -13 -13 -13 -13 -13 -14 -14
-12 -12 -12 -13 -13 -13 -13 -13 -13 -13 -13 -13 -13 -13 -13 -13 -13 -13 -14 -14 -14 -14 -13 -13 -13 -13 -13 -13 -13 -13 -13 -13 -13 -13 -13 -13 -13 -13 -14 -14 -14 -14 -14
-12 -12 -13 -13 -13 -13 -13 -13 -13 -13 -13 -13 -13 -13 -13 -13 -13 -13 -13 -13 -13 -13 -13 -13 -13 -13 -13 -13 -13 -14 -14 -14 -13 -13 -14 -14 -14 -14 -14 -14 -14 -14 -15
-12 -12 -12 -13 -13 -13 -13 -13 -13 -13 -13 -13 -13 -13 -13 -13 -13 -13 -13 -13 -13 -13 -13 -13 -13 -13 -13 -13 -14 -14 -13 -13 -14 -14 -14 -14 -14 -15 -15 -15 -15 -15 -15
-12 -12 -12 -12 -13 -13 -13 -13 -13 -13 -13 -13 -13 -13 -13 -13 -13 -13 -13 -13 -13 -13 -13 -13 -13 -13 -14 -14 -14 -14 -14 -14 -14 -14 -14 -14 -15 -15 -15 -14 -14 -14 -15
-13 -12 -12 -12 -12 -13 -13 -13 -13 -13 -13 -13 -13 -13 -13 -13 -13 -13 -13 -13 -13 -13 -13 -13 -14 -14 -14 -14 -14 -14 -14 -14 -14 -14 -14 -14 -14 -14 -14 -14 -14 -15 -15
-12 -12 -12 -12 -12 -12 -12 -13 -13 -13 -13 -13 -13 -13 -13 -13 -13 -13 -13 -13 -13 -13 -13 -13 -13 -14 -14 -14 -14 -14 -14 -14 -14 -14 -14 -14 -15 -15 -15 -15 -15 -15 -15
-12 -12 -11 -12 -12 -12 -12 -12 -13 -13 -13 -13 -13 -13 -13 -13 -13 -13 -13 -13 -13 -13 -13 -13 -14 -14 -14 -14 -14 -14 -13 -14 -14 -14 -14 -14 -14 -14 -15 -14 -14 -14 -14
-12 -12 -12 -11 -12 -12 -12 -12 -13 -13 -13 -13 -13 -13 -13 -13 -13 -13 -13 -13 -13 -13 -13 -13 -14 -14 -14 -13 -14 -14 -14 -14 -14 -14 -14 -14 -14 -14 -14 -14 -14 -14 -15
-12 -11 -11 -11 -11 -12 -12 -12 -13 -13 -13 -13 -13 -13 -13 -13 -13 -13 -13 -13 -13 -13 -13 -13 -13 -13 -13 -13 -14 -14 -14 -14 -14 -14 -14 -14 -14 -14 -14 -15 -14 -15 -15
-12 -12 -12 -12 -12 -12 -12 -12 -13 -13 -13 -13 -13 -13 -13 -14 -14 -14 -13 -13 -13 -13 -13 -13 -14 -13 -13 -14 -14 -14 -14 -14 -14 -14 -15 -14 -15 -15 -15 -15 -15 -15 -15
-12 -12 -12 -12 -12 -12 -13 -13 -13 -13 -13 -13 -13 -13 -13 -13 -13 -13 -13 -14 -14 -14 -14 -14 -14 -14 -14 -14 -14 -14 -14 -14 -15 -15 -14 -15 -15 -15 -15 -15 -15 -16 -15
-12 -12 -12 -12 -12 -12 -12 -13 -13 -13 -13 -13 -13 -14 -14 -14 -14 -14 -14 -14 -14 -14 -14 -14 -14 -14 -14 -14 -14 -14 -14 -14 -14 -14 -14 -14 -15 -15 -15 -15 -15 -16 -16
-12 -12 -12 -12 -12 -12 -12 -12 -13 -13 -13 -13 -13 -14 -14 -14 -14 -14 -14 -14 -14 -14 -14 -14 -14 -14 -13 -14 -14 -14 -14 -15 -15 -15 -15 -15 -15 -15 -15 -15 -16 -15 -16
-13 -13 -12 -12 -12 -12 -13 -12 -13 -13 -13 -13 -13 -13 -13 -13 -13 -14 -14 -14 -14 -14 -14 -14 -14 -14 -14 -14 -14 -14 -14 -15 -15 -15 -15 -15 -16 -15 -16 -16 -16 -16 -16
-14 -13 -14 -13 -13 -12 -12 -13 -13 -13 -13 -13 -13 -13 -13 -13 -13 -13 -14 -14 -14 -14 -14 -14 -14 -14 -14 -14 -14 -14 -14 -14 -15 -15 -15 -15 -16 -16 -16 -16 -16 -16 -16
Height
5720 5718 5716 5711 5707 5702 5699 5698 5697 5696 5695 5695 5694 5696 5698 5699 5700 5702 5704 5705 5707 5709 5710 5711 5712 5714 5720 5727 5732 5735 5738 5744 5747 5754 5759 5763 5768 5772 5776 5779 5783 5787 5792
5720 5717 5715 5711 5707 5704 5702 5700 5699 5698 5697 5697 5697 5699 5701 5703 5704 5705 5707 5708 5710 5711 5712 5713 5715 5718 5724 5729 5733 5737 5741 5746 5751 5754 5760 5764 5768 5773 5777 5781 5784 5788 5791
5719 5717 5714 5711 5708 5706 5704 5703 5701 5700 5700 5700 5700 5702 5704 5706 5708 5710 5711 5713 5713 5715 5715 5716 5719 5722 5726 5732 5736 5740 5744 5749 5752 5758 5762 5766 5771 5775 5779 5782 5785 5788 5792
5718 5717 5715 5713 5710 5709 5706 5705 5704 5704 5703 5704 5704 5705 5707 5709 5712 5714 5716 5717 5719 5720 5720 5722 5724 5726 5730 5735 5740 5745 5748 5752 5756 5760 5764 5768 5773 5777 5780 5783 5786 5790 5793
5718 5717 5716 5715 5713 5710 5709 5708 5707 5707 5707 5707 5707 5708 5710 5712 5715 5718 5720 5721 5723 5725 5725 5726 5728 5731 5735 5739 5744 5747 5751 5755 5759 5763 5767 5771 5775 5778 5782 5784 5787 5790 5792
5719 5718 5717 5716 5714 5712 5711 5710 5709 5709 5710 5710 5710 5710 5712 5715 5717 5719 5722 5725 5727 5729 5730 5731 5733 5735 5737 5741 5745 5749 5753 5756 5760 5764 5768 5772 5775 5778 5782 5783 5787 5790 5792
5722 5720 5720 5718 5716 5714 5714 5712 5712 5711 5711 5712 5713 5713 5714 5716 5720 5722 5725 5727 5729 5732 5734 5736 5737 5738 5741 5745 5749 5752 5755 5759 5763 5768 5771 5774 5777 5780 5782 5784 5787 5789 5790
5724 5723 5722 5721 5719 5716 5717 5716 5714 5714 5714 5715 5714 5713 5714 5717 5720 5724 5726 5729 5732 5734 5738 5740 5741 5744 5746 5749 5753 5757 5759 5761 5765 5769 5773 5775 5777 5780 5782 5785 5787 5789 5791
5726 5725 5724 5724 5723 5720 5720 5720 5719 5718 5717 5716 5715 5716 5716 5718 5721 5725 5728 5731 5735 5738 5741 5743 5746 5748 5751 5754 5756 5758 5761 5764 5767 5771 5775 5778 5779 5781 5784 5786 5787 5790 5791
5727 5727 5727 5727 5727 5725 5725 5724 5724 5723 5723 5722 5721 5720 5721 5723 5725 5728 5731 5734 5736 5739 5742 5745 5748 5750 5753 5756 5758 5760 5763 5767 5770 5773 5776 5777 5779 5781 5783 5786 5787 5789 5788
5729 5729 5730 5730 5730 5730 5729 5729 5728 5729 5729 5728 5728 5728 5729 5731 5731 5732 5734 5736 5739 5741 5745 5748 5751 5753 5756 5760 5762 5765 5767 5770 5772 5775 5777 5779 5781 5782 5784 5785 5786 5786 5783
5731 5731 5732 5732 5733 5734 5734 5733 5733 5733 5734 5735 5735 5735 5736 5737 5738 5739 5740 5743 5746 5748 5751 5753 5755 5758 5760 5763 5765 5768 5770 5773 5775 5777 5779 5780 5782 5782 5782 5782 5782 5781 5779
5732 5733 5734 5734 5735 5736 5736 5737 5737 5738 5739 5740 5741 5742 5742 5743 5745 5746 5748 5749 5752 5754 5756 5757 5758 5760 5763 5765 5767 5769 5771 5773 5775 5776 5778 5779 5779 5779 5778 5778 5777 5776 5774
5732 5734 5735 5736 5737 5738 5738 5740 5741 5742 5743 5744 5745 5746 5747 5748 5750 5751 5753 5755 5756 5758 5760 5761 5763 5764 5766 5767 5768 5770 5772 5772 5773 5774 5775 5775 5774 5774 5773 5772 5771 5770 5769
5732 5733 5735 5737 5738 5739 5741 5742 5744 5745 5747 5748 5749 5750 5752 5753 5754 5755 5757 5758 5759 5760 5761 5762 5764 5765 5765 5766 5767 5768 5769 5770 5770 5771 5771 5770 5770 5769 5768 5767 5767 5765 5763
5731 5733 5734 5736 5738 5740 5742 5743 5746 5748 5749 5750 5752 5753 5754 5755 5756 5757 5758 5759 5760 5761 5762 5763 5764 5765 5765 5766 5766 5766 5766 5766 5766 5767 5766 5766 5766 5765 5764 5763 5762 5759 5756
5729 5731 5733 5735 5737 5739 5741 5743 5746 5748 5750 5752 5753 5754 5755 5756 5757 5758 5759 5759 5760 5761 5761 5762 5763 5763 5763 5763 5763 5763 5762 5762 5762 5762 5762 5762 5761 5760 5759 5757 5754 5751 5747
5727 5729 5730 5733 5735 5737 5740 5742 5744 5746 5748 5750 5752 5754 5755 5757 5758 5758 5759 5759 5759 5759 5759 5759 5759 5760 5760 5760 5760 5759 5759 5758 5758 5758 5758 5757 5756 5754 5752 5750 5746 5742 5739
5724 5726 5728 5730 5732 5734 5736 5739 5741 5743 5745 5747 5749 5751 5753 5754 5755 5756 5756 5756 5756 5756 5757 5757 5756 5757 5757 5757 5758 5757 5756 5755 5754 5753 5753 5751 5749 5747 5744 5741 5738 5734 5729
5720 5722 5724 5725 5727 5729 5732 5735 5737 5739 5741 5743 5744 5746 5748 5750 5751 5752 5752 5753 5752 5752 5753 5753 5754 5754 5754 5753 5753 5752 5751 5750 5750 5748 5746 5744 5742 5739 5737 5734 5730 5725 5719
5714 5716 5719 5721 5723 5725 5727 5730 5732 5733 5735 5737 5739 5741 5742 5744 5745 5746 5746 5747 5747 5747 5748 5748 5748 5748 5748 5747 5747 5746 5745 5744 5743 5741 5738 5736 5733 5731 5729 5725 5721 5716 5710
5709 5711 5712 5715 5717 5720 5722 5724 5726 5728 5729 5731 5733 5734 5736 5737 5738 5739 5740 5741 5741 5742 5742 5742 5741 5741 5741 5740 5739 5738 5736 5735 5733 5732 5730 5728 5726 5721 5718 5716 5712 5707 5701
5703 5705 5707 5708 5710 5713 5715 5717 5719 5721 5723 5724 5726 5728 5730 5730 5731 5733 5734 5734 5734 5735 5734 5734 5733 5733 5732 5731 5730 5729 5729 5728 5726 5725 5722 5720 5717 5713 5710 5706 5701 5697 5691
5694 5699 5700 5703 5705 5706 5707 5710 5713 5714 5715 5717 5719 5720 5722 5725 5725 5724 5726 5727 5727 5727 5727 5727 5727 5726 5726 5725 5724 5723 5723 5721 5718 5715 5712 5710 5707 5704 5700 5696 5690 5685 5680
5684 5687 5692 5695 5697 5700 5702 5703 5705 5707 5709 5710 5711 5712 5714 5715 5717 5718 5717 5718 5719 5720 5719 5720 5720 5720 5719 5717 5716 5714 5713 5711 5708 5706 5703 5700 5697 5692 5689 5686 5680 5674 5670
5673 5672 5676 5681 5687 5689 5690 5693 5697 5698 5701 5703 5703 5704 5705 5707 5708 5710 5712 5711 5711 5713 5713 5712 5711 5710 5709 5708 5706 5705 5702 5700 5697 5695 5692 5689 5685 5682 5678 5674 5669 5664 5658
Wind_Speed
13 13 15 18 19 15 11 3 6 7 9 7 10 12 15 18 17 15 14 12 10 12 13 12 12 20 26 25 25 24 27 23 17 16 20 21 20 18 15 17 18 17 20
12 13 14 17 13 12 7 5 8 9 9 11 12 13 18 13 15 16 15 14 14 14 11 11 13 19 27 23 25 17 23 23 26 22 21 16 21 15 16 19 11 12 17
10 11 13 15 11 11 7 8 8 9 10 11 14 15 13 13 18 16 16 16 14 12 11 12 13 21 26 30 29 25 27 15 22 19 20 20 24 23 17 11 15 13 18
11 11 11 11 12 12 12 10 10 11 10 9 10 13 14 15 20 16 15 16 17 15 18 18 17 17 26 32 24 21 21 15 21 23 14 17 22 15 11 11 13 12 13
10 9 8 7 11 10 7 9 10 10 11 10 8 8 11 18 18 15 15 15 15 17 15 15 16 16 24 28 27 26 21 23 14 18 18 18 14 14 8 8 10 9 8
10 10 9 6 7 8 8 8 9 10 9 8 9 7 9 13 17 17 18 15 14 15 15 15 13 15 24 27 24 28 26 20 15 13 16 16 13 17 11 5 11 7 5
9 11 11 10 7 9 9 10 12 11 10 9 11 9 8 10 14 17 16 15 16 15 13 14 13 19 16 23 23 20 21 18 20 20 18 15 15 14 12 9 6 4 4
11 12 13 12 11 13 12 12 15 14 13 10 6 6 9 11 11 15 16 15 14 12 12 11 16 15 17 17 18 14 15 15 16 16 11 10 12 13 9 4 3 5 6
9 11 13 13 16 17 14 16 16 16 14 16 14 14 13 14 11 13 15 16 16 11 12 12 11 11 16 14 16 18 20 19 17 16 14 12 9 7 7 6 6 6 8
8 10 12 13 15 17 16 16 18 19 22 24 25 23 22 20 16 16 13 14 14 12 11 12 11 14 14 17 17 19 19 18 16 15 13 10 7 6 5 7 9 11 9
6 9 10 12 13 14 14 16 18 21 25 25 24 24 23 19 20 23 19 15 20 20 22 19 14 15 15 16 15 14 13 12 14 12 9 8 8 8 9 10 12 13 12
6 7 8 8 10 10 11 12 16 18 21 20 23 26 26 25 25 25 25 23 24 24 23 21 19 18 17 16 16 15 13 10 8 9 10 10 11 12 11 11 13 15 16
6 6 5 5 6 8 8 8 11 15 18 19 19 21 22 22 21 21 22 21 20 19 17 16 16 14 13 13 12 11 11 11 11 11 10 9 9 10 11 14 17 17 19
3 4 4 4 4 7 9 10 12 13 15 17 19 21 22 23 23 23 22 21 20 19 17 15 14 11 9 7 6 5 6 6 7 7 7 7 9 11 14 17 19 21 24
4 5 4 4 7 6 10 13 14 15 17 19 19 19 19 19 19 17 15 13 12 11 10 8 7 5 4 3 2 3 5 6 6 7 8 9 12 15 18 20 23 24 25
8 7 8 7 8 9 10 12 13 14 16 16 15 14 13 13 12 12 10 7 6 5 5 3 1 0 2 4 6 8 10 10 10 10 11 13 15 18 20 22 23 25 27
12 12 10 10 11 11 11 13 13 12 12 11 9 8 8 8 6 4 4 5 4 2 2 2 3 5 5 7 9 12 14 14 14 13 14 16 18 20 21 24 27 30 32
11 13 15 14 13 13 14 14 14 15 13 12 13 11 10 8 6 6 7 8 10 8 8 10 10 9 9 8 12 14 13 16 19 19 19 20 21 21 18 24 29 33 38
14 14 15 17 17 17 16 15 16 16 15 15 14 15 15 14 15 15 15 15 15 12 11 11 10 11 11 11 14 15 18 17 15 17 20 21 23 22 23 27 35 41 40
16 17 18 19 19 20 19 18 17 17 18 18 19 19 18 19 19 19 18 18 15 14 14 13 12 13 16 19 19 22 19 19 20 20 25 31 32 33 33 34 36 37 37
21 21 20 22 22 20 20 20 20 20 21 21 22 21 21 21 20 19 16 15 16 17 15 18 21 21 21 22 22 23 21 24 27 30 31 30 32 32 32 37 43 45 42
26 26 25 22 23 25 25 25 25 25 25 25 26 24 23 22 20 19 18 19 19 20 22 26 27 27 24 25 26 26 26 25 26 28 32 36 37 43 34 40 38 44 39
29 31 30 28 26 26 25 24 26 25 25 26 27 27 26 24 24 24 25 25 25 27 29 29 28 27 27 27 26 25 26 26 26 31 34 36 39 43 44 45 49 49 41
35 32 36 35 33 30 28 26 25 25 25 26 27 27 28 30 31 32 31 33 32 30 29 28 26 24 24 23 24 26 28 29 31 34 37 39 42 43 44 46 49 45 39
39 39 38 40 39 34 31 28 26 25 23 23 26 30 32 30 29 29 28 29 31 29 26 24 23 24 27 28 30 31 33 35 37 38 39 41 43 46 46 45 46 43 52
42 45 43 43 44 41 39 35 31 27 26 26 25 25 26 27 25 25 28 24 23 26 26 26 26 27 29 31 33 36 37 37 39 41 43 45 45 48 46 46 44 51 50
Wind_Direction
344 346 346 348 352 355 348 15 86 73 66 95 113 131 130 127 126 128 142 143 130 120 119 133 139 163 167 164 172 174 159 153 163 134 156 177 177 178 178 159 163 177 190
348 345 352 357 3 6 13 74 82 71 76 89 108 133 142 122 134 131 130 123 118 115 92 119 130 146 156 156 168 162 157 153 158 159 174 171 171 171 164 162 151 180 186
355 3 6 3 16 22 67 71 75 77 85 89 105 133 135 132 135 132 124 119 122 118 107 125 110 138 161 155 159 160 156 185 178 172 169 180 185 186 177 178 196 198 198
12 28 15 32 43 54 73 71 82 84 85 100 108 118 140 137 146 140 130 123 117 110 100 124 130 147 157 164 164 180 158 175 171 168 158 166 175 173 185 206 210 210 200
23 28 30 58 48 58 57 72 84 86 88 94 101 117 123 142 145 154 147 140 123 118 114 109 124 128 162 166 159 178 192 166 164 161 172 180 182 185 182 206 215 214 203
32 76 63 54 35 54 52 68 78 89 104 110 104 109 130 142 154 152 154 148 138 135 128 117 121 125 148 166 165 161 181 194 189 198 175 182 200 214 231 225 186 183 122
63 73 69 59 43 65 63 81 72 83 120 101 100 112 130 150 159 162 164 157 151 144 138 136 133 126 140 160 167 174 172 179 187 182 180 193 197 207 189 179 161 146 191
73 78 65 52 63 96 83 71 77 85 100 108 117 143 132 146 149 168 171 164 161 169 155 142 139 141 147 149 146 150 169 143 141 156 175 182 183 172 152 134 178 199 224
72 67 70 75 75 85 92 95 83 85 87 88 83 98 118 146 143 150 164 166 164 181 159 151 148 147 148 146 155 146 152 152 152 158 164 149 131 136 161 180 194 231 232
72 64 76 86 86 86 89 92 84 86 90 91 88 90 92 101 118 138 147 158 160 162 164 148 144 144 146 164 155 153 153 152 144 139 135 137 151 173 200 228 239 247 264
82 76 84 90 88 89 86 91 98 95 92 92 94 96 99 92 98 106 98 114 130 127 126 127 131 133 120 132 142 145 139 139 133 134 154 165 190 208 223 240 252 266 283
99 85 79 87 92 88 90 89 100 109 107 102 102 100 100 99 95 92 90 106 101 105 105 106 104 106 112 120 120 120 123 133 152 171 192 201 212 226 243 261 273 277 282
118 112 99 79 80 82 86 109 114 114 114 112 108 108 111 115 117 117 116 115 114 112 115 121 121 122 125 128 131 143 163 181 196 207 217 232 245 258 267 269 274 284 292
168 156 141 139 127 100 103 114 121 122 117 113 110 108 105 101 101 99 98 97 97 97 97 99 105 111 117 121 130 160 189 206 219 232 244 258 271 278 282 288 295 296 295
186 196 188 171 165 150 131 131 130 127 124 121 116 112 109 105 100 93 89 86 86 86 87 89 93 95 104 121 192 242 252 257 264 266 268 277 286 287 288 292 294 296 298
206 199 198 202 196 183 170 162 155 147 145 143 141 136 125 114 99 87 80 75 74 80 87 92 104 201 256 262 263 267 272 277 279 280 279 281 284 289 294 296 299 301 304
208 206 201 205 211 208 204 189 186 182 178 183 190 184 165 149 127 85 44 11 330 296 286 297 279 252 256 268 281 287 289 288 285 281 279 282 285 288 297 305 305 304 303
224 214 205 205 216 219 220 219 211 211 212 214 220 223 222 225 245 275 287 299 313 288 285 286 282 270 276 272 298 299 315 299 283 281 283 286 291 298 311 323 329 326 320
225 228 219 213 217 221 225 228 228 226 228 230 229 234 241 253 268 279 287 292 300 281 276 292 281 265 263 280 286 306 300 302 307 296 293 293 293 289 301 313 327 320 315
236 227 225 224 221 220 220 226 234 239 242 242 246 250 255 262 268 274 283 287 281 278 284 291 299 308 294 292 302 302 300 297 303 316 329 312 294 294 300 310 317 322 316
236 231 228 228 229 223 222 226 232 239 243 246 251 257 260 265 270 271 269 266 271 275 274 290 296 295 297 295 287 307 295 297 294 294 304 307 296 298 297 303 307 315 314
241 232 229 228 229 229 227 231 237 241 245 247 253 257 263 259 257 259 262 262 270 270 278 290 294 296 292 292 290 296 296 292 292 292 297 310 298 304 305 309 314 308 308
245 235 231 227 225 231 235 234 236 240 242 245 248 251 255 254 255 259 258 258 265 271 278 284 287 288 291 292 293 290 298 299 300 302 302 303 304 305 307 310 304 309 302
252 243 236 234 228 227 228 234 242 245 246 249 251 251 254 259 262 260 263 266 268 270 276 282 286 288 291 293 298 298 295 299 297 297 299 300 300 307 302 310 308 298 304
247 250 245 242 236 231 235 238 240 246 252 253 254 253 254 256 262 264 261 264 266 269 276 279 284 291 297 298 299 299 300 301 300 301 301 302 303 306 305 308 307 299 308
249 244 244 241 241 236 231 232 239 242 253 253 253 252 255 255 258 262 269 274 278 279 280 282 283 286 287 290 294 297 297 299 299 297 297 301 303 305 303 305 304 295 296